Date,TemperatureHighF,TemperatureAvgF,TemperatureLowF,DewpointHighF,DewpointAvgF,DewpointLowF,HumidityHigh,HumidityAvg,HumidityLow,PressureMaxIn,PressureMinIn,WindSpeedMaxMPH,WindSpeedAvgMPH,GustSpeedMaxMPH,PrecipitationSumIn
2013-1-1,30,25,20,28,21,16,92,85,77,30.15,30.01,20,6,20,0.00
2013-1-2,22,20,18,17,15,13,92,82,74,30.38,30.13,15,6,19,0.00
2013-1-3,26,20,8,23,16,5,91,83,70,30.36,30.21,22,6,24,0.00
2013-1-4,30,26,24,23,20,16,86,76,64,30.28,30.11,28,13,33,0.01
2013-1-5,28,26,24,23,21,19,90,84,78,30.48,30.22,19,4,19,0.00
2013-1-6,33,31,27,32,28,23,100,88,82,30.22,30.00,15,5,18,0.00
2013-1-7,32,28,19,30,24,17,93,86,78,30.53,30.21,16,4,18,0.00
2013-1-8,38,20,6,32,17,4,95,89,67,30.53,30.38,8,0,9,0.07
2013-1-9,45,29,12,37,24,10,100,83,63,30.57,30.21,28,5,33,0.03
2013-1-10,40,27,16,33,24,14,100,89,69,30.76,30.48,6,0,7,0.00
2013-1-11,44,37,33,38,32,26,97,85,58,30.48,29.94,11,1,13,0.45
2013-1-12,51,38,33,51,37,33,99,98,97,30.08,29.98,6,0,9,0.00
2013-1-13,65,51,38,58,49,37,100,93,77,29.98,29.64,19,2,20,0.05
2013-1-14,56,33,27,54,28,22,98,83,71,30.44,29.67,35,6,39,0.06
2013-1-15,32,27,24,22,20,18,82,75,63,30.53,30.22,10,0,10,0.00
2013-1-16,34,31,28,31,26,22,89,83,74,30.23,29.88,23,4,24,0.00
2013-1-17,32,30,22,28,25,18,90,80,71,30.23,29.98,25,7,25,0.00
2013-1-18,28,21,15,18,13,8,89,72,58,30.63,30.23,23,8,25,0.00
2013-1-19,49,39,28,32,24,16,64,55,45,30.31,29.65,30,9,30,0.00
2013-1-20,45,28,19,32,19,11,89,70,49,30.17,29.52,35,14,45,0.00
2013-1-21,19,16,10,16,11,4,92,80,62,30.16,30.01,26,8,26,0.00
2013-1-22,11,6,4,8,1,-1,97,81,72,30.51,30.12,32,13,35,0.00
2013-1-23,10,5,0,5,0,-4,92,81,71,30.57,30.37,21,5,22,0.00
2013-1-24,15,4,-6,10,-1,-9,99,81,63,30.90,30.36,15,2,21,0.00
2013-1-25,13,6,-4,10,3,-8,89,86,73,30.89,30.34,12,1,13,0.00
2013-1-26,23,16,11,19,13,8,91,87,76,30.67,30.35,14,2,19,0.03
2013-1-27,30,22,13,20,16,12,92,80,57,30.77,30.50,10,0,11,0.02
2013-1-28,40,33,26,39,31,20,98,93,76,30.50,29.99,12,2,13,0.46
2013-1-29,47,37,32,46,37,32,99,98,97,30.07,29.74,10,0,10,0.47
2013-1-30,60,54,46,55,51,46,100,89,73,29.74,28.89,23,4,37,0.58
2013-1-31,50,25,16,47,22,14,94,89,78,29.86,28.88,40,15,42,0.24
2013-2-1,17,14,8,14,10,2,92,86,71,30.49,29.85,31,11,32,0.00
2013-2-2,16,13,9,14,9,4,93,85,72,30.49,30.15,18,3,25,0.00
2013-2-3,22,17,14,19,14,10,93,87,73,30.15,29.94,21,5,21,0.01
2013-2-4,21,17,13,18,14,10,100,88,76,30.19,30.04,23,5,23,0.00
2013-2-5,28,20,9,22,17,7,94,88,74,30.08,29.96,9,1,10,0.04
2013-2-6,26,19,2,23,15,0,93,86,59,30.54,30.05,18,4,19,0.01
2013-2-7,40,22,0,29,16,-3,92,77,54,30.61,30.15,16,2,23,0.02
2013-2-8,35,28,15,32,24,11,94,86,76,30.22,29.74,25,6,30,0.29
2013-2-9,26,16,5,17,12,2,91,82,64,30.63,30.22,13,3,15,0.00
2013-2-10,44,22,0,29,14,-3,89,73,39,30.65,30.10,20,1,20,0.01
2013-2-11,47,37,32,43,32,23,97,82,54,30.10,29.56,34,7,34,0.17
2013-2-12,32,29,22,26,24,19,91,81,76,30.06,29.81,28,9,31,0.00
2013-2-13,40,30,24,29,24,21,91,80,58,29.99,29.72,11,1,12,0.00
2013-2-14,35,29,21,33,27,19,95,89,85,29.99,29.86,13,2,15,0.27
2013-2-15,35,30,22,33,24,16,94,78,70,30.13,29.89,20,7,24,0.01
2013-2-16,26,19,8,19,12,4,89,74,53,30.14,30.04,18,2,20,0.00
2013-2-17,17,12,5,12,7,2,90,83,70,30.46,30.07,23,6,26,0.00
2013-2-18,36,20,-1,24,12,-4,90,73,43,30.56,30.04,14,1,15,0.01
2013-2-19,42,31,18,37,27,14,92,86,57,30.04,29.58,32,8,38,0.67
2013-2-20,18,16,15,14,12,9,90,82,71,30.34,29.89,27,12,31,0.00
2013-2-21,22,16,9,14,12,6,91,82,67,30.60,30.31,20,5,21,0.00
2013-2-22,30,25,14,28,21,12,93,85,67,30.57,30.12,20,5,25,0.00
2013-2-23,36,31,27,32,29,23,95,91,83,30.13,29.89,11,1,13,0.04
2013-2-24,28,27,25,25,22,19,92,82,75,30.22,29.89,22,6,22,0.00
2013-2-25,35,26,19,25,22,17,93,83,63,30.37,30.22,9,1,10,0.00
2013-2-26,38,30,18,32,26,16,99,85,65,30.28,29.64,24,6,29,0.97
2013-2-27,36,34,32,35,32,30,99,93,86,29.65,29.54,22,3,29,0.33
2013-2-28,33,31,30,32,30,27,100,93,86,29.79,29.54,15,5,16,0.14
2013-3-1,30,26,23,28,23,20,93,88,83,30.05,29.79,16,4,18,0.00
2013-3-2,24,22,21,22,19,17,95,86,79,30.05,30.01,13,4,15,0.00
2013-3-3,24,22,19,20,18,15,92,85,78,30.08,29.99,23,9,26,0.00
2013-3-4,24,21,18,20,18,14,92,87,80,30.25,30.08,22,6,23,0.00
2013-3-5,38,26,20,27,21,16,91,81,63,30.25,29.88,12,3,13,0.01
2013-3-6,39,32,26,29,26,22,90,76,59,30.18,29.86,16,2,20,0.00
2013-3-7,34,31,29,31,29,27,95,91,86,30.35,30.16,14,3,19,0.01
2013-3-8,37,31,22,28,25,20,95,81,64,30.51,30.35,19,3,24,0.02
2013-3-9,51,31,18,35,25,16,95,82,48,30.57,30.28,6,0,8,0.00
2013-3-10,66,43,28,38,31,25,92,66,32,30.29,29.97,13,1,19,0.00
2013-3-11,60,48,38,44,35,31,94,63,37,29.98,29.56,16,2,21,0.23
2013-3-12,44,36,32,43,33,27,96,88,79,29.94,29.61,21,5,24,0.29
2013-3-13,33,28,22,28,24,19,94,84,72,30.12,29.89,29,8,30,0.01
2013-3-14,28,24,18,22,17,14,94,76,64,30.28,30.11,25,10,29,0.00
2013-3-15,33,27,16,31,24,13,95,91,80,30.23,29.92,21,4,21,0.04
2013-3-16,31,28,22,29,25,20,95,89,78,30.06,29.74,10,1,10,0.08
2013-3-17,31,24,14,23,18,11,93,79,55,30.42,30.06,10,1,12,0.02
2013-3-18,32,26,15,30,22,12,93,87,69,30.39,29.77,23,6,30,0.02
2013-3-19,34,29,23,32,26,20,96,88,75,29.95,29.73,27,8,31,0.16
2013-3-20,27,22,11,22,19,9,94,87,74,30.00,29.93,22,6,26,0.01
2013-3-21,24,18,6,22,14,4,94,86,68,29.99,29.93,21,6,23,0.00
2013-3-22,26,24,22,22,20,19,94,86,77,30.12,29.94,22,7,24,0.00
2013-3-23,34,26,15,24,21,13,93,81,64,30.16,30.08,16,4,16,0.01
2013-3-24,36,26,12,27,19,10,100,77,56,30.15,29.65,14,2,14,0.01
2013-3-25,34,32,29,31,28,24,95,86,68,29.76,29.52,14,4,15,0.07
2013-3-26,40,32,24,31,27,21,94,82,61,30.07,29.76,20,5,23,0.00
2013-3-27,37,33,29,30,28,26,95,84,72,30.17,30.05,22,7,25,0.00
2013-3-28,36,32,30,33,30,28,96,92,86,30.32,30.12,14,3,15,0.09
2013-3-29,47,36,27,34,30,24,95,78,49,30.32,30.21,21,3,23,0.00
2013-3-30,51,35,21,32,26,19,95,73,39,30.31,30.09,15,1,18,0.00
2013-3-31,51,38,28,42,34,26,96,85,49,30.09,29.62,15,1,21,0.12
2013-4-1,43,34,25,41,26,15,96,75,52,30.03,29.53,29,8,32,0.04
2013-4-2,33,26,18,23,18,15,92,73,51,30.29,30.03,27,8,28,0.01
2013-4-3,32,27,22,23,18,15,86,69,52,30.57,30.27,27,7,29,0.00
2013-4-4,54,32,15,26,17,11,90,61,19,30.54,30.01,26,2,28,0.00
2013-4-5,44,33,22,32,25,19,92,73,54,30.08,29.95,27,4,27,0.00
2013-4-6,54,43,24,30,20,13,90,43,22,30.38,30.05,14,2,21,0.00
2013-4-7,70,54,36,49,36,21,89,52,38,30.05,29.66,30,7,42,0.00
2013-4-8,69,51,28,52,40,27,97,72,43,30.02,29.74,23,3,27,0.00
2013-4-9,72,60,45,56,48,41,89,69,45,29.97,29.65,29,4,30,0.00
2013-4-10,67,54,44,62,52,42,98,93,76,29.79,29.57,22,2,25,1.40
2013-4-11,45,43,41,44,41,38,97,93,88,29.88,29.66,15,5,19,0.09
2013-4-12,56,47,39,55,44,33,97,92,80,29.73,29.38,25,6,25,1.15
2013-4-13,43,39,33,36,34,30,92,80,66,29.98,29.72,28,9,29,0.04
2013-4-14,48,38,30,38,33,28,94,82,63,30.16,29.98,19,3,21,0.00
2013-4-15,70,54,35,51,44,33,93,71,45,30.11,29.96,21,2,26,0.00
2013-4-16,68,56,47,61,52,44,96,84,72,30.08,29.83,25,3,26,0.13
2013-4-17,66,52,41,45,40,33,94,66,30,30.23,30.01,12,1,14,0.00
2013-4-18,80,65,45,63,55,40,86,71,54,30.03,29.50,23,3,26,0.00
2013-4-19,70,57,40,60,49,32,94,76,65,29.62,29.09,36,7,39,0.46
2013-4-20,40,34,26,32,27,21,91,74,60,30.49,29.62,29,10,35,0.02
2013-4-21,50,34,21,33,25,19,93,71,36,30.78,30.49,13,1,14,0.00
2013-4-22,61,44,27,37,30,24,91,62,33,30.61,30.30,20,2,22,0.00
2013-4-23,69,51,32,41,35,28,84,57,31,30.32,29.85,21,2,22,0.00
2013-4-24,59,48,36,55,43,33,94,84,60,30.01,29.47,28,5,37,0.42
2013-4-25,52,42,36,38,34,28,91,75,44,30.27,30.01,25,10,26,0.00
2013-4-26,57,50,40,41,35,28,98,58,34,30.44,30.27,13,4,15,0.00
2013-4-27,64,53,52,41,35,34,54,50,39,30.35,30.23,9,3,10,0.00
2013-4-28,56,52,52,49,49,48,91,88,76,29.90,29.83,19,6,19,0.15
2013-4-29,58,54,50,54,51,47,95,88,84,29.90,29.80,14,3,14,0.01
2013-4-30,71,62,55,57,53,50,91,74,54,30.03,29.89,18,3,26,0.00
2013-5-1,78,68,50,54,49,42,93,53,32,30.15,30.02,18,4,22,0.00
2013-5-2,77,70,42,46,38,28,86,34,17,30.21,30.02,19,2,21,0.00
2013-5-3,76,67,40,50,42,10,92,43,29,30.10,29.94,22,3,26,0.00
2013-5-4,73,58,39,45,40,35,90,56,29,30.11,29.94,26,2,32,0.00
2013-5-5,75,57,37,48,37,23,96,55,17,30.07,29.89,26,3,27,0.00
2013-5-6,76,57,34,50,40,31,93,58,27,30.01,29.84,19,2,23,0.00
2013-5-7,76,61,43,55,48,42,97,68,33,29.93,29.76,18,2,19,0.00
2013-5-8,69,58,50,59,53,48,95,84,58,29.84,29.72,16,1,20,0.05
2013-5-9,73,60,47,59,54,45,100,81,42,29.82,29.70,30,3,30,0.08
2013-5-10,74,57,42,62,53,41,97,87,62,29.82,29.57,23,2,27,0.81
2013-5-11,59,51,44,58,48,43,96,91,83,29.66,29.50,16,5,21,0.19
2013-5-12,48,41,34,46,35,30,96,78,54,30.00,29.62,32,10,33,0.13
2013-5-13,44,36,28,32,30,26,95,78,57,30.22,29.99,19,4,19,0.01
2013-5-14,52,39,25,42,34,24,95,82,45,30.26,29.92,19,1,20,0.15
2013-5-15,81,59,42,65,51,41,97,78,45,29.92,29.51,32,6,38,0.01
2013-5-16,75,60,45,57,47,40,98,68,35,29.84,29.58,26,5,28,0.00
2013-5-17,74,56,38,50,43,37,97,67,32,30.05,29.83,12,1,16,0.00
2013-5-18,80,63,52,57,51,45,88,67,40,30.05,29.88,12,1,13,0.00
2013-5-19,78,67,55,64,59,52,94,77,58,29.93,29.75,16,2,20,0.00
2013-5-20,85,71,56,68,63,55,98,77,51,29.83,29.59,19,2,23,0.00
2013-5-21,87,73,58,71,64,57,99,77,46,29.67,29.47,27,4,28,0.00
2013-5-22,85,72,59,69,63,58,98,78,49,29.57,29.39,26,4,30,0.13
2013-5-23,72,63,46,66,60,44,96,88,73,29.69,29.45,21,4,21,0.47
2013-5-24,46,41,38,43,37,35,93,86,71,30.24,29.69,23,5,23,0.08
2013-5-25,56,44,31,41,36,30,97,75,50,30.31,30.17,24,6,27,0.00
2013-5-26,61,47,30,41,35,28,97,69,37,30.25,30.17,24,5,26,0.00
2013-5-27,70,51,30,48,39,29,98,69,33,30.27,30.05,15,1,16,0.00
2013-5-28,74,60,49,67,57,44,100,92,76,30.07,29.71,21,1,24,3.81
2013-5-29,82,68,58,71,64,57,99,90,62,29.85,29.75,22,2,24,0.26
2013-5-30,83,70,58,72,65,58,100,86,58,29.94,29.82,14,2,16,0.01
2013-5-31,86,71,57,72,64,57,100,80,49,29.89,29.69,20,3,26,0.00
2013-6-1,84,73,62,71,66,61,98,80,59,29.75,29.47,24,4,27,0.00
2013-6-2,76,69,61,67,63,56,97,81,58,29.63,29.41,29,6,30,0.43
2013-6-3,62,55,42,58,47,39,94,76,44,29.95,29.62,16,3,21,0.00
2013-6-4,70,52,37,50,43,36,98,73,43,30.09,29.95,13,2,16,0.00
2013-6-5,78,59,38,58,48,37,96,70,40,30.12,29.79,12,1,14,0.00
2013-6-6,65,61,59,60,58,55,98,91,75,29.81,29.56,15,2,19,1.54
2013-6-7,62,59,55,60,57,53,99,95,90,29.66,29.57,9,1,10,0.03
2013-6-8,66,58,50,58,54,49,97,88,71,29.97,29.65,12,2,13,0.00
2013-6-9,76,61,48,62,55,48,99,82,49,30.08,29.89,10,0,10,0.00
2013-6-10,71,65,59,68,64,57,98,95,91,29.89,29.48,12,2,13,0.40
2013-6-11,66,64,59,63,62,58,97,93,86,29.65,29.46,23,6,23,0.39
2013-6-12,78,66,57,68,62,57,99,87,59,29.71,29.51,10,1,11,0.01
2013-6-13,67,62,55,65,60,54,98,94,84,29.58,29.13,20,3,21,1.00
2013-6-14,71,62,54,60,57,52,98,84,61,29.84,29.58,16,3,16,0.00
2013-6-15,74,61,48,60,53,47,98,78,47,29.93,29.81,15,2,18,0.00
2013-6-16,75,65,57,66,61,55,97,87,69,29.83,29.56,24,3,25,0.03
2013-6-17,80,68,56,65,61,56,99,79,48,29.72,29.63,19,3,22,0.04
2013-6-18,73,64,53,63,59,49,98,83,69,29.81,29.63,15,2,20,0.11
2013-6-19,72,58,43,56,49,42,98,76,48,30.05,29.81,10,1,14,0.00
2013-6-20,80,61,41,61,52,40,98,75,41,30.11,30.01,12,1,12,0.00
2013-6-21,81,65,46,66,55,45,98,75,41,30.11,29.97,13,1,14,0.00
2013-6-22,86,69,53,71,63,52,99,82,51,30.02,29.80,18,2,21,0.00
2013-6-23,88,75,61,73,67,60,99,80,48,29.88,29.73,18,3,20,0.00
2013-6-24,87,74,60,70,66,60,99,78,50,29.83,29.67,16,3,20,0.00
2013-6-25,85,70,61,72,66,60,99,88,61,29.73,29.55,23,3,25,0.57
2013-6-26,80,70,64,72,67,63,98,89,69,29.63,29.53,19,2,20,0.01
2013-6-27,71,66,63,71,65,62,100,98,91,29.55,29.37,9,0,10,2.10
2013-6-28,75,66,60,68,63,59,100,91,64,29.39,29.21,14,1,21,0.29
2013-6-29,72,65,59,67,63,58,98,94,78,29.45,29.22,14,1,20,0.59
2013-6-30,79,67,61,71,64,61,100,93,66,29.64,29.45,7,0,9,0.13
2013-7-1,73,65,60,69,63,59,99,95,82,29.79,29.62,18,1,19,1.07
2013-7-2,84,71,62,74,67,62,98,88,62,29.83,29.74,14,1,14,0.28
2013-7-3,86,72,63,73,68,63,100,88,60,29.91,29.81,16,1,18,0.01
2013-7-4,82,73,68,73,69,66,99,89,66,29.93,29.85,20,1,20,0.11
2013-7-5,82,72,66,72,69,66,100,89,68,29.89,29.80,21,2,22,0.38
2013-7-6,86,73,65,76,70,65,100,90,65,29.92,29.75,10,1,13,0.18
2013-7-7,78,72,66,70,68,65,100,88,70,29.81,29.69,16,2,16,0.01
2013-7-8,82,71,64,72,67,63,99,89,64,29.84,29.75,12,2,14,0.04
2013-7-9,82,72,67,76,70,66,99,94,76,29.80,29.64,18,1,18,0.10
2013-7-10,83,72,64,76,69,63,98,90,77,29.66,29.45,25,3,28,0.54
2013-7-11,74,66,56,65,60,55,98,81,57,29.81,29.60,11,0,15,0.01
2013-7-12,75,64,54,64,60,53,99,87,66,29.97,29.81,13,1,18,0.00
2013-7-13,78,67,56,71,63,55,98,88,69,30.06,29.95,10,0,10,0.00
2013-7-14,89,74,61,75,68,61,100,84,55,30.11,29.98,10,1,13,0.00
2013-7-15,91,76,64,78,71,63,99,86,62,30.08,29.95,9,0,10,0.00
2013-7-16,91,77,67,78,71,66,100,84,59,30.06,29.92,9,0,11,0.00
2013-7-17,89,75,66,81,73,66,100,92,67,30.01,29.84,15,0,15,0.18
2013-7-18,89,78,69,80,73,68,100,86,61,29.90,29.69,14,1,16,0.01
2013-7-19,89,78,66,77,72,65,99,82,60,29.72,29.45,20,4,22,0.00
2013-7-20,78,72,67,71,69,66,99,89,75,29.63,29.42,18,2,20,0.77
2013-7-21,85,72,64,72,66,62,99,84,54,29.72,29.63,7,0,11,0.00
2013-7-22,83,68,60,73,65,59,100,91,66,29.71,29.50,10,0,14,0.43
2013-7-23,82,69,64,70,66,63,99,90,62,29.50,29.36,25,2,28,1.24
2013-7-24,68,60,48,63,54,47,97,82,60,29.87,29.47,12,0,14,0.00
2013-7-25,75,59,46,60,52,45,99,81,52,29.98,29.87,11,1,15,0.01
2013-7-26,81,63,50,64,56,49,99,79,45,29.97,29.79,8,0,12,0.00
2013-7-27,73,64,53,66,60,52,99,90,75,29.82,29.60,11,0,19,0.00
2013-7-28,71,64,51,64,58,50,97,82,57,29.82,29.59,20,3,20,0.01
2013-7-29,70,58,51,58,53,50,97,84,59,29.92,29.82,14,2,16,0.00
2013-7-30,75,67,54,63,59,52,96,77,58,30.09,29.97,12,1,13,0.00
2013-7-31,78,64,50,64,58,49,99,83,54,30.02,29.73,10,1,12,0.01
2013-8-1,76,67,56,67,62,55,96,84,60,29.73,29.58,19,2,22,0.01
2013-8-2,75,64,53,64,58,52,99,82,60,29.72,29.66,19,3,20,0.03
2013-8-3,75,66,54,63,59,52,98,80,51,29.77,29.64,16,1,19,0.00
2013-8-4,72,60,50,59,54,49,98,82,58,29.93,29.76,15,2,19,0.00
2013-8-5,72,59,48,59,52,47,98,81,49,30.00,29.87,8,0,12,0.00
2013-8-6,80,64,48,63,56,48,98,78,46,29.90,29.77,12,0,16,0.00
2013-8-7,81,68,57,71,63,56,99,87,67,29.79,29.64,13,1,15,0.04
2013-8-8,81,71,61,74,68,60,99,92,77,29.74,29.64,9,0,9,0.00
2013-8-9,78,69,55,69,65,54,99,90,61,29.77,29.59,11,1,13,0.08
2013-8-10,76,63,52,62,55,51,99,79,48,29.95,29.77,14,1,15,0.00
2013-8-11,79,63,51,62,55,50,98,79,48,29.99,29.85,11,1,12,0.00
2013-8-12,75,62,52,65,59,51,99,92,65,29.90,29.67,11,0,12,0.31
2013-8-13,68,62,49,65,58,46,99,88,65,29.75,29.55,20,2,20,1.83
2013-8-14,67,55,47,56,50,45,100,84,57,30.02,29.75,14,1,15,0.02
2013-8-15,70,56,45,59,51,44,99,85,60,30.09,29.97,12,1,13,0.00
2013-8-16,76,60,49,61,52,48,99,81,43,30.08,30.00,9,0,9,0.01
2013-8-17,77,61,48,64,55,47,99,83,52,30.17,30.05,14,0,14,0.00
2013-8-18,75,63,53,64,59,52,100,86,62,30.10,29.94,12,0,16,0.00
2013-8-19,78,66,56,68,62,55,98,88,68,29.96,29.82,10,0,10,0.00
2013-8-20,82,65,53,68,59,52,99,84,53,30.01,29.89,13,1,13,0.01
2013-8-21,86,66,54,70,55,-93,99,85,48,30.04,29.88,11,0,13,0.00
2013-8-22,81,69,58,72,59,-91,100,87,68,29.93,29.73,16,3,20,0.01
2013-8-23,80,67,52,65,45,-91,99,78,44,30.09,29.80,12,1,15,0.00
2013-8-24,80,60,48,60,52,-92,99,79,35,30.25,30.09,7,0,8,0.01
2013-8-25,82,63,48,64,55,47,100,80,45,30.25,30.03,13,1,14,0.00
2013-8-26,84,69,56,69,63,55,98,84,55,30.07,29.73,20,3,23,0.27
2013-8-27,86,69,-39,76,67,-43,99,92,66,29.74,29.56,13,1,18,0.04
2013-8-28,82,72,65,74,62,-91,99,92,72,29.73,29.55,9,0,12,0.07
2013-8-29,86,72,63,72,52,-92,99,86,55,29.98,29.73,8,0,8,0.01
2013-8-30,84,72,65,72,0,-94,98,87,59,30.34,29.88,16,2,19,0.00
2013-8-31,82,73,68,74,38,-91,98,89,72,30.12,29.71,13,1,13,0.01
2013-9-1,86,71,64,73,16,-92,99,90,63,29.95,29.75,13,1,15,0.00
2013-9-2,80,65,0,72,1,-91,98,89,73,30.20,29.91,16,1,18,0.01
2013-9-3,62,60,55,60,34,-90,98,95,87,30.19,29.86,16,3,18,0.01
2013-9-4,76,60,50,63,11,-92,98,86,57,30.31,29.98,18,3,20,0.04
2013-9-5,68,60,44,59,51,42,97,76,48,30.20,29.95,18,2,20,0.00
2013-9-6,72,52,41,52,40,-90,98,79,34,30.22,30.03,7,0,8,0.01
2013-9-7,76,56,44,62,27,-90,98,89,49,30.17,29.97,14,1,16,0.15
2013-9-8,71,61,46,63,-12,-92,98,88,60,30.57,29.99,15,1,16,0.01
2013-9-9,76,58,44,66,19,-90,98,91,68,30.56,30.16,14,0,14,0.46
2013-9-10,89,74,60,78,9,-92,98,88,66,30.60,30.27,19,3,19,0.01
2013-9-11,89,76,70,78,2,-92,98,88,65,30.60,30.32,16,2,18,0.00
2013-9-12,74,66,56,70,42,-91,98,93,80,30.34,29.61,20,2,20,0.17
2013-9-13,59,54,48,55,21,-90,98,88,73,30.11,29.74,16,1,16,0.01
2013-9-14,64,52,39,47,43,37,96,76,42,30.12,29.97,13,1,16,0.00
2013-9-15,67,50,38,55,42,-90,98,86,55,30.14,30.02,8,0,10,0.02
2013-9-16,64,54,40,56,29,-91,98,90,73,30.47,30.02,12,1,13,0.02
2013-9-17,68,47,36,49,35,-93,98,81,40,30.57,30.28,11,0,12,0.00
2013-9-18,75,51,36,58,34,-90,98,83,47,30.36,30.11,13,1,16,0.01
2013-9-19,78,57,45,63,12,-92,98,86,55,30.43,30.14,11,1,12,0.00
2013-9-20,78,63,50,69,-2,-94,98,91,73,30.44,30.15,15,1,18,0.01
2013-9-21,68,61,53,65,8,-91,97,95,88,30.15,29.61,14,0,15,1.39
2013-9-22,60,52,48,52,7,-90,98,86,63,30.39,29.93,14,1,14,0.01
2013-9-23,60,49,37,48,43,36,96,82,58,30.31,30.02,9,0,12,0.00
2013-9-24,68,47,37,55,29,-90,98,87,47,30.16,30.01,10,0,10,0.00
2013-9-25,72,52,43,57,-7,-90,100,85,42,30.51,30.04,6,0,7,0.02
2013-9-26,72,54,43,58,48,42,99,85,47,30.35,29.92,10,0,13,0.00
2013-9-27,71,54,44,60,49,43,100,87,52,30.15,30.04,9,0,11,0.01
2013-9-28,71,54,44,61,50,43,100,86,57,30.21,30.06,16,1,16,0.01
2013-9-29,74,56,41,61,51,40,99,86,56,30.08,29.86,11,1,15,0.00
2013-9-30,72,57,46,62,55,46,100,92,65,29.90,29.80,16,1,18,0.01
2013-10-1,74,60,49,62,56,48,100,89,58,29.90,29.78,16,2,19,0.01
2013-10-2,76,58,47,66,54,46,100,90,60,29.98,29.82,14,2,16,0.00
2013-10-3,78,59,47,68,57,47,100,93,69,30.00,29.82,13,1,15,0.01
2013-10-4,80,66,58,70,63,58,100,91,69,29.87,29.76,15,2,16,0.03
2013-10-5,80,67,58,70,64,58,100,92,70,29.87,29.73,12,1,15,0.00
2013-10-6,80,69,62,72,65,61,100,89,67,29.74,29.46,15,1,19,0.04
2013-10-7,72,56,46,62,50,43,96,81,66,29.96,29.36,25,6,29,0.78
2013-10-8,65,49,38,54,44,37,99,87,49,30.29,29.96,9,0,12,0.00
2013-10-9,68,48,36,57,42,36,100,84,40,30.37,30.21,10,0,10,0.01
2013-10-10,69,47,33,51,41,32,99,84,43,30.25,30.08,7,0,9,0.00
2013-10-11,74,53,40,53,45,39,98,79,36,30.08,29.95,11,0,11,0.00
2013-10-12,76,54,38,59,47,37,98,81,44,30.10,29.96,12,1,13,0.00
2013-10-13,66,57,46,60,54,45,99,91,76,30.16,30.06,13,1,14,0.11
2013-10-14,65,55,40,58,51,39,98,88,67,30.22,30.10,9,0,10,0.04
2013-10-15,68,54,40,59,51,39,98,90,73,30.18,29.83,14,0,14,0.00
2013-10-16,62,58,49,60,56,47,98,93,80,29.83,29.61,15,1,19,0.48
2013-10-17,61,50,43,54,47,42,100,92,64,29.78,29.54,18,2,24,0.38
2013-10-18,60,49,38,46,43,37,97,82,51,29.86,29.69,22,6,26,0.04
2013-10-19,56,44,35,47,40,35,99,89,64,29.85,29.58,25,3,28,0.15
2013-10-20,55,43,34,43,38,33,97,83,58,29.98,29.80,22,4,23,0.01
2013-10-21,64,48,33,47,38,32,98,72,37,30.00,29.71,26,2,28,0.00
2013-10-22,54,42,30,48,37,29,95,82,57,29.82,29.66,21,6,26,0.18
2013-10-23,42,35,31,38,33,30,96,92,75,29.89,29.71,19,2,21,0.06
2013-10-24,37,34,31,34,32,30,97,92,87,30.12,29.87,18,6,21,0.27
2013-10-25,46,37,32,39,34,30,97,87,58,30.30,30.12,21,4,25,0.26
2013-10-26,44,38,29,35,30,26,93,72,56,30.22,29.82,27,6,28,0.04
2013-10-27,43,37,27,38,33,25,96,88,68,30.12,29.90,20,4,21,0.03
2013-10-28,52,36,25,43,32,24,98,88,60,30.42,30.12,11,0,11,0.01
2013-10-29,54,39,29,40,34,28,98,83,52,30.48,30.31,12,0,13,0.00
2013-10-30,64,42,28,46,36,26,97,82,43,30.31,30.08,9,0,12,0.00
2013-10-31,64,54,34,60,52,33,98,93,82,30.09,29.23,16,1,22,0.83
2013-11-1,61,54,47,57,48,42,94,81,68,29.51,29.04,33,9,36,0.63
2013-11-2,49,44,38,44,42,35,97,91,84,29.92,29.48,16,3,21,0.21
2013-11-3,42,34,22,35,29,20,94,82,54,30.60,29.92,16,1,16,0.00
2013-11-4,40,28,18,26,20,16,95,74,39,30.76,30.57,13,1,19,0.01
2013-11-5,52,41,30,38,30,23,88,67,48,30.61,30.37,10,0,14,0.00
2013-11-6,67,51,31,56,44,28,97,80,56,30.37,29.72,25,2,25,0.33
2013-11-7,57,41,31,56,38,27,98,88,72,30.03,29.71,24,4,28,0.83
2013-11-8,38,33,29,34,31,26,98,92,75,30.34,30.01,16,2,20,0.29
2013-11-9,52,39,24,43,31,23,96,76,47,30.34,29.86,25,2,27,0.02
2013-11-10,46,40,34,43,36,30,95,85,74,30.23,29.81,23,6,25,0.25
2013-11-11,43,35,28,35,31,26,96,85,62,30.23,30.00,26,5,27,0.13
2013-11-12,32,27,24,28,23,19,96,84,63,30.55,30.17,16,2,22,0.06
2013-11-13,33,28,24,24,22,19,90,78,66,30.62,30.37,21,6,22,0.01
2013-11-14,47,32,24,28,21,18,89,66,35,30.37,30.18,20,5,24,0.00
2013-11-15,53,34,22,32,26,20,95,74,31,30.28,30.15,16,2,18,0.00
2013-11-16,59,40,23,45,35,22,97,84,57,30.33,30.01,11,0,14,0.00
2013-11-17,60,55,46,57,51,43,96,89,66,30.01,29.23,27,3,35,0.74
2013-11-18,56,44,34,47,35,26,92,72,58,29.96,29.26,37,13,45,0.04
2013-11-19,36,31,20,29,25,18,94,77,63,30.54,29.96,16,3,21,0.00
2013-11-20,46,29,17,27,18,13,94,69,27,30.68,30.54,14,1,15,0.00
2013-11-21,39,34,25,37,30,17,96,82,60,30.57,30.31,6,0,6,0.06
2013-11-22,47,40,32,47,39,28,99,95,84,30.31,30.01,20,3,22,0.16
2013-11-23,32,26,16,29,22,11,94,84,68,30.38,30.12,25,6,29,0.00
2013-11-24,23,17,8,18,12,5,92,83,55,30.69,30.38,21,4,25,0.00
2013-11-25,30,21,5,25,13,3,93,74,52,30.68,30.35,25,4,29,0.03
2013-11-26,32,30,27,30,28,25,97,92,85,30.37,29.86,16,1,21,0.04
2013-11-27,30,25,20,30,22,15,97,88,76,30.11,29.75,19,5,22,0.01
2013-11-28,24,20,18,20,18,15,94,90,72,30.60,30.11,18,3,18,0.00
2013-11-29,30,16,0,23,13,-3,94,86,64,30.97,30.59,10,1,10,0.13
2013-11-30,33,16,-2,24,12,-5,94,84,67,30.95,30.47,11,0,11,0.07
2013-12-1,35,24,10,31,22,7,96,92,80,30.47,30.08,6,0,6,0.10
2013-12-2,39,32,23,34,30,21,100,93,81,30.09,29.87,6,0,6,0.24
2013-12-3,36,27,16,35,25,14,98,95,91,30.06,29.93,2,0,3,0.05
2013-12-4,46,34,26,41,32,25,98,94,79,30.09,29.92,6,0,6,0.01
2013-12-5,59,44,34,56,41,33,98,92,81,30.03,29.74,19,3,21,0.07
2013-12-6,35,30,26,33,28,24,96,90,79,30.36,29.99,9,2,11,0.22
2013-12-7,26,23,18,24,18,13,93,82,71,30.77,30.35,19,5,21,0.00
2013-12-8,26,21,16,23,17,14,92,82,69,30.77,30.26,16,3,19,0.00
2013-12-9,35,31,26,34,28,21,96,87,76,30.26,30.02,25,8,29,0.12
2013-12-10,27,23,19,22,16,8,91,74,50,30.29,30.05,28,11,36,0.00
2013-12-11,21,19,16,18,15,12,93,83,74,30.51,30.28,24,9,26,0.00
2013-12-12,17,14,10,14,7,2,91,76,55,30.61,30.40,25,9,27,0.00
2013-12-13,25,21,16,19,14,5,84,74,62,30.47,30.37,21,6,25,0.00
2013-12-14,29,24,19,28,22,16,96,92,84,30.47,29.73,15,3,16,0.00
2013-12-15,30,24,16,30,21,12,97,90,80,30.04,29.65,28,9,31,0.00
2013-12-16,19,10,-8,13,6,-12,91,85,70,30.39,30.04,19,5,20,0.00
2013-12-17,24,17,0,23,14,-3,95,90,81,30.34,30.16,18,2,18,0.00
2013-12-18,26,24,15,22,20,13,92,85,76,30.27,30.14,20,8,22,0.00
2013-12-19,42,26,7,33,22,5,100,85,64,30.21,30.10,22,2,23,0.27
2013-12-20,42,35,31,41,34,30,99,97,95,30.11,29.84,6,0,7,0.31
2013-12-21,53,45,40,53,44,40,100,99,98,29.85,29.52,13,0,15,1.35
2013-12-22,64,54,39,60,51,37,100,89,74,29.83,29.33,28,5,35,0.33
2013-12-23,39,33,27,38,30,20,96,88,76,30.32,29.81,27,6,27,0.02
2013-12-24,27,20,12,23,17,9,94,86,69,30.68,30.28,23,6,24,0.00
2013-12-25,24,15,1,20,10,-2,92,82,66,30.77,30.43,11,1,15,0.00
2013-12-26,29,25,17,27,22,14,94,89,81,30.47,30.24,22,6,28,0.00
2013-12-27,33,26,21,29,22,17,100,87,78,30.48,30.32,19,3,19,0.01
2013-12-28,46,33,20,34,28,18,96,82,61,30.32,30.06,19,3,20,0.03
2013-12-29,38,32,27,37,31,26,98,95,88,30.07,29.68,20,1,23,0.12
2013-12-30,31,19,14,29,14,8,92,80,69,30.35,29.83,20,6,21,0.00
2013-12-31,19,17,14,16,12,7,92,82,71,30.49,30.19,36,8,38,0.00
2014-1-1,22,17,15,17,14,12,91,87,79,30.58,30.34,11,1,14,0.01
2014-1-2,17,12,3,14,10,0,92,88,83,30.34,30.00,14,5,19,0.00